Simultaneous Nadir Overpasses (SNOs) Predictions

Prediction of SNOs between GOES-17 and FY3D Satellite Orbit:

Table of predicted SNOs for the next 14.0 days since TLE Epoch: 9/4/2021
Index Date Time (GOES-17) GOES-17 Lat,Lon FY3D Lat,Lon Distance(km) Time Diff (sec)
1 09/04/2021 11:02:45 0.04,-137.20 0.78,-140.46 371.68 15
2 09/05/2021 10:44:52 0.04,-137.19 -0.28,-135.87 151.07 80
3 09/06/2021 23:03:47 -0.03,-137.19 -0.93,-141.07 443.08 80
4 09/07/2021 22:47:29 -0.03,-137.18 0.13,-136.49 79.49 80
5 09/10/2021 10:47:18 0.03,-137.15 0.03,-137.06 10.17 80
6 09/12/2021 22:49:55 -0.03,-137.12 -0.18,-137.68 63.87 80
7 09/13/2021 22:33:37 -0.03,-137.10 0.89,-133.09 457.43 80
8 09/15/2021 10:52:25 0.02,-137.07 0.27,-138.27 136.31 80
9 09/16/2021 10:36:06 0.01,-137.04 -0.74,-133.67 384.49 80
10 09/17/2021 22:55:01 -0.00,-137.01 -0.42,-138.88 212.63 80
